Location: *
(51.8167°N, 12.5000°E)
Time: 02:05:17
(UTC+00:00)

Cosmos 2263 Rocket - Pass Details

Date: 16 September 2019
Orbit: 824 x 848 km, 71.0° (Epoch: 18 October)

Event Time Altitude Azimuth Distance (km) Brightness Sun altitude
Exits shadow 21:58:17 25° 42° (NE) 1,659 3.9 -33.9°
Drops below altitude 10° 22:00:35 10° 36° (NE) 2,480 5.0 -34.0°
Sets 22:03:04 0° 33° (NNE) 3,417 5.8 -34.1°
